{"data":{"norad_id":67926,"epoch":"2026-09-19T15:15:26.315136Z","epoch_age_seconds":137886,"freshness":"FRESH","line1":"1 67926U 26036Y   26262.63572124  .00011882  00000+0  44050-3 0  9990","line2":"2 67926  42.9999 229.9622 0001183 281.1747  78.8971 15.27589024 33389","mean_motion":15.27589024,"eccentricity":0.0001183,"inclination_deg":42.9999,"raan_deg":229.9622,"arg_perigee_deg":281.1747,"mean_anomaly_deg":78.8971,"bstar":0.0004405,"rev_number":3338,"period_min":94.26619184716,"perigee_km":482.21039995172,"apogee_km":483.83375018889,"semimajor_km":6861.1590750703,"source":"CELESTRAK","updated_at":"2026-09-20T09:00:43.705323Z"}}